Weather History for Kimball, NE

Change the Weather History Date:

Monday, December 31, 2012

  Actual Average (KSNY) Record (KSNY)
Temperature  
Mean Temperature 14 °F 29 °F  
Max Temperature 24 °F 42 °F 65 °F (1980)
Min Temperature 5 °F 16 °F -19 °F (1967)
Degree Days  
Heating Degree Days 50 36  
Month to date heating degree days 1126  
Since 1 July heating degree days 2547  
Moisture  
Dew Point 10 °F    
Average Humidity 82    
Maximum Humidity 92    
Minimum Humidity 68    
Precipitation  
Precipitation 0.00 in 0.01 in 0.33 in (2010)
Month to date precipitation 0.54  
Year to date precipitation 18.54  
Sea Level Pressure  
Sea Level Pressure 29.96 in    
Wind  
Wind Speed 4 mph (West)    
Max Wind Speed 8 mph    
Max Gust Speed -    
Visibility 10 miles    
Events      
T = Trace of Precipitation, MM = Missing Value Source: NWS Daily Summary

Daily Weather History Graph

Daily Weather History Graph

Search for Another Location

Airport:

Trip Planner

Search our weather history database for the weather conditions in past years. The results will help you decide how hot, cold, wet, or windy it might be!

Date:

Astronomy

Dec. 31, 2012 Rise Set
Actual Time 8:20 AM CST 5:36 PM CST
Civil Twilight 7:49 AM CST 6:07 PM CST
Nautical Twilight 7:14 AM CST 6:41 PM CST
Astronomical Twilight 6:40 AM CST 7:15 PM CST
Moon 9:11 PM CST (12/31) 10:01 AM CST (12/31)
Length of Visible Light 10h 18m
Length of Day
9h 15m
Waning Gibbous, 90% of the Moon is Illuminated
Dec 31
Waning Gibbous
Jan 4
Last Quarter
Jan 11
New
Jan 18
First Quarter
Jan 26
Full

Hourly Weather History & Observations

Time (CST) Temp. Windchill Dew Point Humidity Pressure Visibility Wind Dir Wind Speed Gust Speed Precip Events Conditions
12:15 AM 15.1 °F 7.7 °F 10.0 °F 80% 30.02 in 10.0 mi WSW 4.6 mph - N/A   Overcast
12:35 AM 15.3 °F 7.9 °F 10.4 °F 81% 30.01 in 10.0 mi WNW 4.6 mph - N/A   Overcast
12:55 AM 14.2 °F 4.1 °F 9.1 °F 80% 30.00 in 10.0 mi NW 6.9 mph - N/A   Overcast
1:15 AM 14.0 °F 3.9 °F 8.4 °F 78% 29.99 in 10.0 mi NW 6.9 mph - N/A   Overcast
1:35 AM 13.5 °F 3.3 °F 7.7 °F 78% 29.98 in 10.0 mi NW 6.9 mph - N/A   Overcast
1:55 AM 11.8 °F 1.3 °F 6.6 °F 80% 29.98 in 10.0 mi NW 6.9 mph - N/A   Mostly Cloudy
2:15 AM 10.4 °F 2.2 °F 5.5 °F 81% 29.98 in 10.0 mi NNW 4.6 mph - N/A   Overcast
2:35 AM 13.5 °F 5.8 °F 8.1 °F 79% 29.98 in 10.0 mi WNW 4.6 mph - N/A   Mostly Cloudy
2:55 AM 12.7 °F - 7.7 °F 80% 29.98 in 10.0 mi Calm Calm - N/A   Mostly Cloudy
3:15 AM 13.3 °F 5.6 °F 8.2 °F 80% 29.98 in 10.0 mi North 4.6 mph - N/A   Overcast
3:35 AM 13.1 °F 5.4 °F 8.2 °F 81% 29.98 in 10.0 mi North 4.6 mph - N/A   Overcast
3:55 AM 13.5 °F 7.5 °F 8.4 °F 80% 29.97 in 10.0 mi North 3.5 mph - N/A   Scattered Clouds
4:15 AM 12.0 °F - 7.3 °F 81% 29.96 in 10.0 mi Calm Calm - N/A   Scattered Clouds
4:35 AM 10.9 °F - 6.8 °F 83% 29.96 in 10.0 mi Calm Calm - N/A   Mostly Cloudy
4:55 AM 10.2 °F - 5.9 °F 83% 29.95 in 10.0 mi Calm Calm - N/A   Overcast
5:15 AM 11.3 °F - 7.0 °F 83% 29.95 in 10.0 mi Calm Calm - N/A   Overcast
5:35 AM 10.8 °F - 6.6 °F 83% 29.94 in 10.0 mi Calm Calm - N/A   Mostly Cloudy
5:55 AM 10.8 °F - 6.8 °F 84% 29.94 in 10.0 mi Calm Calm - N/A   Overcast
6:15 AM 11.7 °F - 7.7 °F 84% 29.94 in 10.0 mi Calm Calm - N/A   Overcast
6:55 AM 14.0 °F - 9.5 °F 82% 29.94 in 10.0 mi Calm Calm - N/A   Overcast
7:15 AM 12.9 °F - 9.1 °F 85% 29.95 in 10.0 mi Calm Calm - N/A   Overcast
7:35 AM 11.7 °F 5.5 °F 8.1 °F 85% 29.95 in 10.0 mi WNW 3.5 mph - N/A   Mostly Cloudy
7:55 AM 9.1 °F 2.6 °F 5.9 °F 87% 29.95 in 10.0 mi WNW 3.5 mph - N/A   Scattered Clouds
8:15 AM 6.8 °F -0.1 °F 3.0 °F 84% 29.95 in 10.0 mi WNW 3.5 mph - N/A   Clear
8:35 AM 7.0 °F 0.1 °F 3.7 °F 87% 29.94 in 10.0 mi NW 3.5 mph - N/A   Clear
8:55 AM 5.2 °F -5.4 °F 2.5 °F 89% 29.94 in 10.0 mi WNW 5.8 mph - N/A   Scattered Clouds
9:15 AM 6.1 °F -2.8 °F 3.2 °F 88% 29.94 in 10.0 mi WNW 4.6 mph - N/A   Clear
9:35 AM 6.4 °F -2.4 °F 3.4 °F 87% 29.95 in 10.0 mi WNW 4.6 mph - N/A   Clear
9:55 AM 9.0 °F 0.6 °F 5.7 °F 87% 29.96 in 10.0 mi WNW 4.6 mph - N/A   Clear
10:15 AM 10.9 °F 0.2 °F 7.2 °F 85% 29.97 in 10.0 mi WNW 6.9 mph - N/A   Clear
10:35 AM 12.9 °F 5.2 °F 8.8 °F 84% 29.98 in 10.0 mi NW 4.6 mph - N/A   Clear
10:55 AM 16.7 °F 11.2 °F 11.3 °F 79% 29.98 in 10.0 mi NW 3.5 mph - N/A   Clear
11:15 AM 19.0 °F - 12.7 °F 76% 29.99 in 10.0 mi Calm Calm - N/A   Clear
11:35 AM 19.4 °F 14.3 °F 13.1 °F 76% 29.98 in 10.0 mi NW 3.5 mph - N/A   Mostly Cloudy
11:55 AM 21.0 °F - 14.4 °F 75% 29.98 in 10.0 mi Calm Calm - N/A   Scattered Clouds
12:15 PM 23.0 °F - 14.9 °F 71% 29.98 in 10.0 mi Calm Calm - N/A   Clear
12:35 PM 23.9 °F 19.5 °F 14.9 °F 69% 29.97 in 10.0 mi NW 3.5 mph - N/A   Clear
12:55 PM 23.9 °F 19.5 °F 15.3 °F 70% 29.96 in 10.0 mi North 3.5 mph - N/A   Clear
1:15 PM 24.1 °F - 15.1 °F 69% 29.95 in 10.0 mi Calm Calm - N/A   Mostly Cloudy
1:35 PM 24.4 °F 20.1 °F 15.1 °F 68% 29.95 in 10.0 mi East 3.5 mph - N/A   Overcast
1:55 PM 23.0 °F 17.0 °F 16.2 °F 75% 29.94 in 10.0 mi SE 4.6 mph - N/A   Mostly Cloudy
2:15 PM 23.9 °F 18.0 °F 16.3 °F 73% 29.92 in 10.0 mi SE 4.6 mph - N/A   Scattered Clouds
2:35 PM 24.4 °F - 16.2 °F 71% 29.92 in 10.0 mi Calm Calm - N/A   Clear
2:55 PM 24.3 °F - 15.8 °F 70% 29.92 in 10.0 mi Calm Calm - N/A   Clear
3:15 PM 24.4 °F 20.1 °F 16.3 °F 71% 29.92 in 10.0 mi SE 3.5 mph - N/A   Clear
3:35 PM 23.9 °F 19.5 °F 16.2 °F 72% 29.94 in 10.0 mi ESE 3.5 mph - N/A   Clear
3:55 PM 22.8 °F 16.7 °F 15.8 °F 74% 29.94 in 10.0 mi SE 4.6 mph - N/A   Clear
4:15 PM 21.9 °F 15.7 °F 15.8 °F 77% 29.94 in 10.0 mi SE 4.6 mph - N/A   Clear
4:35 PM 21.7 °F 17.0 °F 15.8 °F 78% 29.94 in 10.0 mi SE 3.5 mph - N/A   Clear
4:55 PM 20.7 °F 15.8 °F 15.3 °F 80% 29.95 in 10.0 mi SSE 3.5 mph - N/A   Clear
5:15 PM 18.3 °F 11.5 °F 14.7 °F 86% 29.95 in 10.0 mi South 4.6 mph - N/A   Clear
5:35 PM 15.8 °F 8.6 °F 12.9 °F 88% 29.95 in 10.0 mi SSW 4.6 mph - N/A   Clear
5:55 PM 14.0 °F 8.2 °F 11.5 °F 90% 29.95 in 10.0 mi WSW 3.5 mph - N/A   Clear
6:15 PM 11.3 °F 5.1 °F 9.5 °F 92% 29.95 in 10.0 mi WSW 3.5 mph - N/A   Clear
6:35 PM 12.2 °F 4.3 °F 10.4 °F 92% 29.96 in 7.0 mi SW 4.6 mph - N/A   Clear
6:55 PM 12.7 °F 5.0 °F 10.8 °F 92% 29.96 in 10.0 mi WSW 4.6 mph - N/A   Mostly Cloudy
7:35 PM 14.7 °F 7.3 °F 12.2 °F 90% 29.96 in 10.0 mi West 4.6 mph - N/A   Overcast
8:35 PM 10.6 °F - 8.2 °F 90% 29.98 in 10.0 mi Calm Calm - N/A   Scattered Clouds
8:55 PM 11.3 °F 5.1 °F 9.5 °F 92% 29.97 in 7.0 mi SW 3.5 mph - N/A   Clear
9:35 PM 8.6 °F -3.7 °F 6.1 °F 89% 29.98 in 10.0 mi SW 8.1 mph - N/A   Scattered Clouds
9:55 PM 10.6 °F -0.2 °F 8.1 °F 90% 29.98 in 10.0 mi SW 6.9 mph - N/A   Overcast
10:15 PM 9.5 °F -1.5 °F 6.8 °F 89% 29.98 in 10.0 mi WSW 6.9 mph - N/A   Scattered Clouds
10:35 PM 10.2 °F -1.7 °F 7.3 °F 88% 29.98 in 10.0 mi SW 8.1 mph - N/A   Mostly Cloudy
10:55 PM 10.2 °F 0.6 °F 7.3 °F 88% 29.99 in 10.0 mi West 5.8 mph - N/A   Mostly Cloudy
11:15 PM 9.0 °F -3.2 °F 5.9 °F 87% 29.99 in 10.0 mi WSW 8.1 mph - N/A   Scattered Clouds
11:35 PM 8.2 °F -3.0 °F 5.0 °F 87% 30.00 in 10.0 mi WSW 6.9 mph - N/A   Scattered Clouds
11:55 PM 8.8 °F -1.1 °F 5.5 °F 87% 30.00 in 10.0 mi WSW 5.8 mph - N/A   Scattered Clouds